Location: North Runcton
(52.7000°N, 0.4333°E)
Time: 20:52:29
(UTC+00:00)

Cosmos 2237 - Pass Details

Date: 19 May 2025
Orbit: 847 x 854 km, 70.8° (Epoch: 21 June)

Event Time Altitude Azimuth Distance (km) Brightness Sun altitude
Rises 22:48:45 0° 327° (NNW) 3,423 8.8 -15.9°
Reaches altitude 10° 22:51:13 10° 325° (NW) 2,483 7.8 -16.0°
Maximum altitude 22:56:53 69° 243° (WSW) 909 4.3 -16.2°
Enters shadow 23:00:06 26° 167° (SSE) 1,601 5.0 -16.4°
